Kezdőlap
METAR-TAF:

METAR-TAF

Repülőterek :

Brenner Field

Falls City, Nebraska, Amerikai Egyesült Államok

földrajzi szélesség: 40-04-44N, földrajzi hosszúság: 095-35-31W, magasság: 300 m

Jelenlegi meteorológiai megfigyelések

A jelentés 41 perccel ezelõtt készült, 12:53 UTC
Dél-délnyugati szél 7 kt
Hőmérséklet 26°C
Páratartalom 79%
Légköri nyomás 1017 hPa
Látótávolság: 16.1 km
Derült ég

METAR: KFNB 281253Z AUTO 21007KT 10SM CLR 26/22 A3003 RMK AO2 SLP158 T02560222

Idő: 08:34 (13:34 UTC)


TAF: hiányzik

Meteorológiai megfigyelések és előrejelzések több, mint 4000 repülőtéren (METAR és TAF jelentéseket).

A térképen piros és sárga pontok jelzik az elérhető meteorológiai állomásokat.

Mozgassa az egeret a pont fölött, hogy megjelenjen az állomás neve.

Azután kattintson az időjárási megfigyelések és előrejelzések megtekintéséhez.

A térkép megváltoztatása: kattintson a fekete keresztel jelölt zöld gombra ráközelítéshez, a vonallal jelölt zöld gombra távolításhoz, vagy a zöld nyilakra a szomszédos térképek eléréséhez.


METAR-TAF: